START_TIME,STEP,MOV.,AL01,t_acc.,AL02,t_acc.,E37,t_acc.,H21,t_acc.
1989-08-26T03:00:35.000 ,6,0,0.,24.0,0.,24.0,0.,24.0,0.,24.0
1989-08-26T03:00:59.000 ,6,0,0.,24.0,0.,24.0,0.,24.0,0.,24.0
1989-08-26T03:01:23.000 ,6,0,0.,24.0,0.,24.0,0.,24.0,0.,24.0
1989-08-26T03:01:47.000 ,7,1,23.,24.0,0.,24.0,0.,24.0,0.,24.0
1989-08-26T03:02:11.000 ,3,1,0.,24.0,0.,24.0,0.,24.0,0.,24.0
1989-08-26T03:02:35.000 ,0,1,0.,24.0,0.,24.0,0.,24.0,0.,24.0
1989-08-26T03:02:59.000 ,0,0,0.,24.0,0.,24.0,0.,24.0,0.,24.0
1989-08-26T03:03:23.000 ,0,0,0.,24.0,0.,24.0,0.,24.0,0.,24.0
1989-08-26T03:03:47.000 ,0,0,0.,24.0,0.,24.0,0.,24.0,0.,24.0
1989-08-26T03:04:11.000 ,0,0,0.,24.0,0.,24.0,0.,24.0,0.,24.0
1989-08-26T03:04:35.000 ,0,0,0.,24.0,0.,24.0,0.,24.0,0.,24.0
1989-08-26T03:04:59.000 ,0,0,0.,24.0,0.,24.0,0.,24.0,0.,24.0
1989-08-26T03:05:23.000 ,0,0,0.,24.0,0.,24.0,0.,24.0,0.,24.0
1989-08-26T03:05:47.000 ,0,0,0.,24.0,0.,24.0,0.,24.0,0.,24.0
1989-08-26T03:06:11.000 ,0,0,0.,24.0,0.,24.0,0.,24.0,0.,24.0
1989-08-26T03:06:35.000 ,0,0,0.,24.0,0.,24.0,0.,24.0,0.,24.0
1989-08-26T03:06:59.000 ,0,0,0.,24.0,0.,24.0,0.,24.0,0.,24.0
1989-08-26T03:07:23.000 ,2,1,0.,24.0,0.,24.0,0.,24.0,0.,24.0
1989-08-26T03:07:47.000 ,6,1,0.,24.0,0.,24.0,0.,24.0,0.,24.0
1989-08-26T03:08:11.000 ,6,1,16.,24.0,0.,24.0,0.,24.0,0.,24.0
1989-08-26T03:08:35.000 ,6,0,0.,24.0,0.,24.0,0.,24.0,0.,24.0
1989-08-26T03:08:59.000 ,6,0,0.,24.0,0.,24.0,0.,24.0,0.,24.0
1989-08-26T03:09:23.000 ,6,0,0.,24.0,0.,24.0,0.,24.0,0.,24.0
1989-08-26T03:09:47.000 ,6,0,0.,24.0,0.,24.0,0.,24.0,0.,24.0
1989-08-26T03:10:11.000 ,6,0,0.,24.0,0.,24.0,0.,24.0,0.,24.0
1989-08-26T03:10:35.000 ,6,0,0.,24.0,0.,24.0,0.,24.0,0.,24.0
1989-08-26T03:10:59.000 ,6,0,0.,24.0,0.,24.0,0.,24.0,0.,24.0
1989-08-26T03:11:23.000 ,6,0,0.,24.0,0.,24.0,0.,24.0,0.,24.0
1989-08-26T03:11:47.000 ,6,0,0.,24.0,0.,24.0,0.,24.0,0.,24.0
1989-08-26T03:12:11.000 ,6,0,0.,24.0,0.,24.0,0.,24.0,0.,24.0
1989-08-26T03:12:35.000 ,6,0,0.,24.0,1.,24.0,0.,24.0,0.,24.0
1989-08-26T03:12:59.000 ,6,0,0.,24.0,0.,24.0,0.,24.0,0.,24.0
1989-08-26T03:13:23.000 ,6,0,0.,24.0,0.,24.0,0.,24.0,0.,24.0
1989-08-26T03:13:47.000 ,4,1,0.,24.0,0.,24.0,0.,24.0,0.,24.0
1989-08-26T03:14:11.000 ,0,1,0.,24.0,0.,24.0,0.,24.0,0.,24.0
1989-08-26T03:14:35.000 ,3,1,0.,24.0,0.,24.0,0.,24.0,0.,24.0
1989-08-26T03:14:59.000 ,6,1,0.,24.0,0.,24.0,0.,24.0,0.,24.0
1989-08-26T03:15:23.000 ,6,0,0.,24.0,1.,24.0,0.,24.0,0.,24.0
1989-08-26T03:15:47.000 ,6,0,0.,24.0,0.,24.0,0.,24.0,0.,24.0
1989-08-26T03:16:11.000 ,6,0,0.,24.0,0.,24.0,0.,24.0,0.,24.0
1989-08-26T03:16:35.000 ,6,0,0.,24.0,0.,24.0,0.,24.0,0.,24.0
1989-08-26T03:16:59.000 ,6,0,0.,24.0,0.,24.0,0.,24.0,0.,24.0
1989-08-26T03:17:23.000 ,6,0,0.,24.0,0.,24.0,0.,24.0,0.,24.0
1989-08-26T03:17:47.000 ,6,0,0.,24.0,0.,24.0,0.,24.0,0.,24.0
1989-08-26T03:18:11.000 ,6,0,0.,24.0,0.,24.0,0.,24.0,0.,24.0
1989-08-26T03:18:35.000 ,6,0,0.,24.0,0.,24.0,0.,24.0,0.,24.0
1989-08-26T03:18:59.000 ,6,0,0.,24.0,0.,24.0,0.,24.0,0.,24.0
1989-08-26T03:19:23.000 ,7,1,17.,24.0,0.,24.0,0.,24.0,0.,24.0
1989-08-26T03:19:47.000 ,3,1,0.,24.0,0.,24.0,0.,24.0,0.,24.0
1989-08-26T03:20:11.000 ,0,1,0.,24.0,0.,24.0,0.,24.0,0.,24.0
1989-08-26T03:20:35.000 ,0,0,0.,24.0,0.,24.0,0.,24.0,0.,24.0
1989-08-26T03:20:59.000 ,0,0,1.,24.0,0.,24.0,0.,24.0,0.,24.0
1989-08-26T03:21:23.000 ,0,0,0.,24.0,0.,24.0,0.,24.0,0.,24.0
1989-08-26T03:21:47.000 ,0,0,0.,24.0,0.,24.0,0.,24.0,0.,24.0
1989-08-26T03:22:11.000 ,0,0,0.,24.0,0.,24.0,0.,24.0,0.,24.0
1989-08-26T03:22:35.000 ,0,0,0.,24.0,0.,24.0,0.,24.0,0.,24.0
1989-08-26T03:22:59.000 ,0,0,0.,24.0,0.,24.0,0.,24.0,0.,24.0
1989-08-26T03:23:23.000 ,0,0,0.,24.0,0.,24.0,0.,24.0,0.,24.0
1989-08-26T03:23:47.000 ,0,0,0.,24.0,0.,24.0,0.,24.0,0.,24.0
1989-08-26T03:24:11.000 ,0,0,0.,24.0,0.,24.0,0.,24.0,0.,24.0
1989-08-26T03:24:35.000 ,0,0,1.,24.0,0.,24.0,0.,24.0,0.,24.0
1989-08-26T03:24:59.000 ,0,0,0.,24.0,0.,24.0,0.,24.0,0.,24.0
1989-08-26T03:25:23.000 ,0,0,0.,24.0,0.,24.0,0.,24.0,0.,24.0
1989-08-26T03:25:47.000 ,2,1,1.,24.0,0.,24.0,0.,24.0,0.,24.0
1989-08-26T03:26:11.000 ,6,1,0.,24.0,0.,24.0,0.,24.0,0.,24.0
1989-08-26T03:26:35.000 ,6,1,15.,24.0,0.,24.0,0.,24.0,0.,24.0
1989-08-26T03:26:59.000 ,6,0,0.,24.0,0.,24.0,0.,24.0,0.,24.0
1989-08-26T03:27:23.000 ,6,0,1.,24.0,0.,24.0,0.,24.0,0.,24.0
1989-08-26T03:27:47.000 ,6,0,0.,24.0,0.,24.0,0.,24.0,0.,24.0
1989-08-26T03:28:11.000 ,6,0,0.,24.0,0.,24.0,0.,24.0,0.,24.0
1989-08-26T03:28:35.000 ,6,0,0.,24.0,0.,24.0,0.,24.0,0.,24.0
1989-08-26T03:28:59.000 ,6,0,0.,24.0,0.,24.0,0.,24.0,0.,24.0
1989-08-26T03:29:23.000 ,6,0,0.,24.0,0.,24.0,0.,24.0,0.,24.0
1989-08-26T03:29:47.000 ,6,0,0.,24.0,0.,24.0,0.,24.0,0.,24.0
1989-08-26T03:30:11.000 ,6,0,0.,24.0,0.,24.0,0.,24.0,0.,24.0
1989-08-26T03:30:35.000 ,6,0,0.,24.0,0.,24.0,0.,24.0,0.,24.0
1989-08-26T03:30:59.000 ,6,0,0.,24.0,0.,24.0,0.,24.0,0.,24.0
1989-08-26T03:31:23.000 ,4,1,0.,24.0,0.,24.0,0.,24.0,0.,24.0
1989-08-26T03:31:47.000 ,0,1,0.,24.0,0.,24.0,0.,24.0,0.,24.0
1989-08-26T03:32:11.000 ,3,1,0.,24.0,0.,24.0,0.,24.0,0.,24.0
1989-08-26T03:32:35.000 ,6,1,0.,24.0,0.,24.0,0.,24.0,0.,24.0
1989-08-26T03:32:59.000 ,6,0,0.,24.0,0.,24.0,0.,24.0,0.,24.0
1989-08-26T03:33:23.000 ,6,0,0.,24.0,0.,24.0,0.,24.0,0.,24.0
1989-08-26T03:33:47.000 ,6,0,0.,24.0,0.,24.0,0.,24.0,0.,24.0
1989-08-26T03:34:11.000 ,6,0,0.,24.0,0.,24.0,0.,24.0,0.,24.0
1989-08-26T03:34:35.000 ,6,0,0.,24.0,0.,24.0,0.,24.0,0.,24.0
1989-08-26T03:34:59.000 ,6,0,0.,24.0,0.,24.0,0.,24.0,0.,24.0
1989-08-26T03:35:23.000 ,6,0,0.,24.0,0.,24.0,0.,24.0,0.,24.0
1989-08-26T03:35:47.000 ,6,0,1.,24.0,0.,24.0,0.,24.0,0.,24.0
1989-08-26T03:36:11.000 ,6,0,0.,24.0,0.,24.0,0.,24.0,0.,24.0
1989-08-26T03:36:35.000 ,6,0,0.,24.0,0.,24.0,0.,24.0,0.,24.0
1989-08-26T03:36:59.000 ,6,0,0.,24.0,0.,24.0,0.,24.0,0.,24.0
1989-08-26T03:37:23.000 ,6,0,0.,24.0,0.,24.0,0.,24.0,0.,24.0
1989-08-26T03:37:47.000 ,7,1,14.,24.0,0.,24.0,0.,24.0,0.,24.0
1989-08-26T03:38:11.000 ,3,1,0.,24.0,0.,24.0,0.,24.0,0.,24.0
1989-08-26T03:38:35.000 ,0,1,0.,24.0,0.,24.0,0.,24.0,0.,24.0
1989-08-26T03:38:59.000 ,0,0,0.,24.0,0.,24.0,0.,24.0,0.,24.0
1989-08-26T03:39:23.000 ,0,0,0.,24.0,0.,24.0,0.,24.0,0.,24.0
1989-08-26T03:39:47.000 ,0,0,0.,24.0,0.,24.0,0.,24.0,0.,24.0
1989-08-26T03:40:11.000 ,0,0,0.,24.0,0.,24.0,0.,24.0,0.,24.0
1989-08-26T03:40:35.000 ,0,0,,0,,0,,0,,0
1989-08-26T03:40:26.600 ,0,0,,0,,0,,0,,0
1989-08-26T03:40:35.000 ,0,0,0.,24.0,0.,24.0,0.,24.0,0.,24.0
1989-08-26T03:40:59.000 ,0,0,0.,24.0,0.,24.0,0.,24.0,0.,24.0
1989-08-26T03:41:23.000 ,0,0,0.,24.0,0.,24.0,0.,24.0,0.,24.0
1989-08-26T03:41:47.000 ,0,0,0.,24.0,0.,24.0,0.,24.0,0.,24.0
1989-08-26T03:42:11.000 ,0,0,0.,24.0,0.,24.0,0.,24.0,0.,24.0
1989-08-26T03:42:35.000 ,0,0,0.,24.0,0.,24.0,0.,24.0,0.,24.0
1989-08-26T03:42:59.000 ,0,0,0.,24.0,0.,24.0,0.,24.0,0.,24.0
1989-08-26T03:43:23.000 ,2,1,0.,24.0,0.,24.0,0.,24.0,0.,24.0
1989-08-26T03:43:47.000 ,6,1,0.,24.0,0.,24.0,0.,24.0,0.,24.0
1989-08-26T03:44:11.000 ,6,1,15.,24.0,0.,24.0,0.,24.0,0.,24.0
1989-08-26T03:44:35.000 ,6,0,0.,24.0,0.,24.0,0.,24.0,0.,24.0
1989-08-26T03:44:59.000 ,6,0,0.,24.0,0.,24.0,0.,24.0,0.,24.0
1989-08-26T03:45:23.000 ,6,0,0.,24.0,0.,24.0,0.,24.0,0.,24.0
1989-08-26T03:45:47.000 ,6,0,0.,24.0,0.,24.0,0.,24.0,0.,24.0
1989-08-26T03:46:11.000 ,6,0,0.,24.0,0.,24.0,0.,24.0,0.,24.0
1989-08-26T03:46:35.000 ,6,0,0.,24.0,0.,24.0,0.,24.0,0.,24.0
1989-08-26T03:46:59.000 ,6,0,0.,24.0,0.,24.0,0.,24.0,0.,24.0
1989-08-26T03:47:23.000 ,6,0,0.,24.0,0.,24.0,0.,24.0,0.,24.0
1989-08-26T03:47:47.000 ,6,0,0.,24.0,1.,24.0,0.,24.0,0.,24.0
1989-08-26T03:48:11.000 ,6,0,0.,24.0,0.,24.0,0.,24.0,0.,24.0
1989-08-26T03:48:35.000 ,6,0,0.,24.0,0.,24.0,0.,24.0,0.,24.0
1989-08-26T03:48:59.000 ,6,0,0.,24.0,0.,24.0,0.,24.0,0.,24.0
1989-08-26T03:49:23.000 ,6,0,0.,24.0,0.,24.0,0.,24.0,0.,24.0
1989-08-26T03:49:47.000 ,4,1,0.,24.0,0.,24.0,0.,24.0,0.,24.0
1989-08-26T03:50:11.000 ,0,1,0.,24.0,0.,24.0,0.,24.0,0.,24.0
1989-08-26T03:50:35.000 ,3,1,0.,24.0,0.,24.0,0.,24.0,0.,24.0
1989-08-26T03:50:59.000 ,6,1,0.,24.0,0.,24.0,0.,24.0,0.,24.0
1989-08-26T03:51:23.000 ,6,0,0.,24.0,0.,24.0,0.,24.0,0.,24.0
1989-08-26T03:51:47.000 ,6,0,0.,24.0,0.,24.0,0.,24.0,0.,24.0
1989-08-26T03:52:11.000 ,6,0,0.,24.0,0.,24.0,0.,24.0,0.,24.0
1989-08-26T03:52:35.000 ,6,0,0.,24.0,0.,24.0,0.,24.0,0.,24.0
1989-08-26T03:52:59.000 ,6,0,0.,24.0,0.,24.0,0.,24.0,0.,24.0
1989-08-26T03:53:23.000 ,6,0,0.,24.0,0.,24.0,0.,24.0,0.,24.0
1989-08-26T03:53:47.000 ,6,0,0.,24.0,0.,24.0,0.,24.0,0.,24.0
1989-08-26T03:54:11.000 ,6,0,0.,24.0,0.,24.0,0.,24.0,0.,24.0
1989-08-26T03:54:35.000 ,6,0,0.,24.0,0.,24.0,0.,24.0,0.,24.0
1989-08-26T03:54:59.000 ,6,0,0.,24.0,0.,24.0,0.,24.0,0.,24.0
1989-08-26T03:55:23.000 ,7,1,19.,24.0,0.,24.0,0.,24.0,0.,24.0
1989-08-26T03:55:47.000 ,3,1,3.,24.0,0.,24.0,0.,24.0,0.,24.0
1989-08-26T03:56:11.000 ,0,1,0.,24.0,0.,24.0,0.,24.0,0.,24.0
1989-08-26T03:56:35.000 ,0,0,0.,24.0,1.,24.0,0.,24.0,0.,24.0
1989-08-26T03:56:59.000 ,0,0,1.,24.0,0.,24.0,0.,24.0,0.,24.0
1989-08-26T03:57:23.000 ,0,0,0.,24.0,0.,24.0,0.,24.0,0.,24.0
1989-08-26T03:57:47.000 ,0,0,1.,24.0,0.,24.0,0.,24.0,0.,24.0
1989-08-26T03:58:11.000 ,0,0,0.,24.0,0.,24.0,0.,24.0,0.,24.0
1989-08-26T03:58:35.000 ,0,0,0.,24.0,0.,24.0,0.,24.0,0.,24.0
1989-08-26T03:58:59.000 ,0,0,0.,24.0,0.,24.0,0.,24.0,0.,24.0
1989-08-26T03:59:23.000 ,0,0,0.,24.0,0.,24.0,0.,24.0,0.,24.0
1989-08-26T03:59:47.000 ,0,0,0.,24.0,0.,24.0,0.,24.0,0.,24.0
1989-08-26T04:00:11.000 ,0,0,0.,24.0,0.,24.0,0.,24.0,0.,24.0
1989-08-26T04:00:35.000 ,0,0,0.,24.0,0.,24.0,0.,24.0,0.,24.0
1989-08-26T04:00:59.000 ,0,0,0.,24.0,0.,24.0,0.,24.0,0.,24.0
1989-08-26T04:01:23.000 ,0,0,0.,24.0,0.,24.0,0.,24.0,0.,24.0
1989-08-26T04:01:47.000 ,2,1,0.,24.0,0.,24.0,0.,24.0,0.,24.0
1989-08-26T04:02:11.000 ,6,1,0.,24.0,0.,24.0,0.,24.0,0.,24.0
1989-08-26T04:02:35.000 ,6,1,12.,24.0,0.,24.0,0.,24.0,0.,24.0
1989-08-26T04:02:59.000 ,6,0,1.,24.0,0.,24.0,0.,24.0,0.,24.0
1989-08-26T04:03:23.000 ,6,0,0.,24.0,0.,24.0,0.,24.0,0.,24.0
1989-08-26T04:03:47.000 ,6,0,0.,24.0,0.,24.0,0.,24.0,0.,24.0
1989-08-26T04:04:11.000 ,6,0,0.,24.0,0.,24.0,0.,24.0,0.,24.0
1989-08-26T04:04:35.000 ,6,0,0.,24.0,0.,24.0,0.,24.0,0.,24.0
1989-08-26T04:04:59.000 ,4,1,0.,24.0,0.,24.0,0.,24.0,0.,24.0
1989-08-26T04:05:23.000 ,4,0,0.,24.0,0.,24.0,0.,24.0,0.,24.0
1989-08-26T04:05:47.000 ,3,1,0.,24.0,0.,24.0,0.,24.0,0.,24.0
1989-08-26T04:06:11.000 ,3,0,0.,24.0,0.,24.0,0.,24.0,0.,24.0
1989-08-26T04:06:35.000 ,2,1,0.,24.0,0.,24.0,0.,24.0,0.,24.0
1989-08-26T04:06:59.000 ,2,0,0.,24.0,0.,24.0,0.,24.0,0.,24.0
1989-08-26T04:07:23.000 ,1,1,0.,24.0,0.,24.0,0.,24.0,0.,24.0
1989-08-26T04:07:47.000 ,1,0,0.,24.0,0.,24.0,0.,24.0,0.,24.0
1989-08-26T04:08:11.000 ,0,1,0.,24.0,0.,24.0,0.,24.0,0.,24.0
1989-08-26T04:08:35.000 ,0,0,0.,24.0,0.,24.0,0.,24.0,0.,24.0
1989-08-26T04:08:59.000 ,0,1,0.,24.0,0.,24.0,0.,24.0,0.,24.0
1989-08-26T04:09:23.000 ,0,0,0.,24.0,0.,24.0,0.,24.0,0.,24.0
1989-08-26T04:09:47.000 ,1,1,0.,24.0,0.,24.0,0.,24.0,0.,24.0
1989-08-26T04:10:11.000 ,1,0,0.,24.0,0.,24.0,0.,24.0,0.,24.0
1989-08-26T04:10:35.000 ,2,1,0.,24.0,0.,24.0,0.,24.0,0.,24.0
1989-08-26T04:10:59.000 ,2,0,0.,24.0,0.,24.0,0.,24.0,0.,24.0
1989-08-26T04:11:23.000 ,3,1,0.,24.0,0.,24.0,0.,24.0,0.,24.0
1989-08-26T04:11:47.000 ,3,0,1.,24.0,0.,24.0,0.,24.0,0.,24.0
1989-08-26T04:12:11.000 ,4,1,0.,24.0,0.,24.0,0.,24.0,0.,24.0
1989-08-26T04:12:35.000 ,4,0,0.,24.0,0.,24.0,0.,24.0,0.,24.0
1989-08-26T04:12:59.000 ,5,1,0.,24.0,0.,24.0,0.,24.0,0.,24.0
1989-08-26T04:13:23.000 ,5,0,0.,24.0,0.,24.0,0.,24.0,0.,24.0
1989-08-26T04:13:47.000 ,6,1,0.,24.0,0.,24.0,0.,24.0,0.,24.0
1989-08-26T04:14:11.000 ,6,0,0.,24.0,0.,24.0,0.,24.0,0.,24.0
1989-08-26T04:14:35.000 ,7,1,8.,24.0,0.,24.0,0.,24.0,0.,24.0
1989-08-26T04:14:59.000 ,7,0,30.,24.0,0.,24.0,0.,24.0,0.,24.0
1989-08-26T04:15:23.000 ,7,1,24.,24.0,0.,24.0,0.,24.0,0.,24.0
1989-08-26T04:15:47.000 ,7,0,32.,24.0,0.,24.0,0.,24.0,0.,24.0
1989-08-26T04:16:11.000 ,6,1,27.,24.0,0.,24.0,0.,24.0,0.,24.0
1989-08-26T04:16:35.000 ,6,0,0.,24.0,0.,24.0,0.,24.0,0.,24.0
1989-08-26T04:16:59.000 ,5,1,0.,24.0,0.,24.0,0.,24.0,0.,24.0
1989-08-26T04:17:23.000 ,5,0,0.,24.0,0.,24.0,0.,24.0,0.,24.0
1989-08-26T04:17:47.000 ,4,1,0.,24.0,0.,24.0,0.,24.0,0.,24.0
1989-08-26T04:18:11.000 ,4,0,0.,24.0,0.,24.0,0.,24.0,0.,24.0
1989-08-26T04:18:35.000 ,3,1,0.,24.0,0.,24.0,0.,24.0,0.,24.0
1989-08-26T04:18:59.000 ,3,0,0.,24.0,0.,24.0,0.,24.0,0.,24.0
1989-08-26T04:19:23.000 ,2,1,0.,24.0,0.,24.0,0.,24.0,0.,24.0
1989-08-26T04:19:47.000 ,2,0,0.,24.0,0.,24.0,0.,24.0,0.,24.0
1989-08-26T04:20:11.000 ,1,1,0.,24.0,0.,24.0,0.,24.0,0.,24.0
1989-08-26T04:20:35.000 ,1,0,0.,24.0,0.,24.0,0.,24.0,0.,24.0
1989-08-26T04:20:59.000 ,0,1,0.,24.0,0.,24.0,0.,24.0,0.,24.0
1989-08-26T04:21:23.000 ,0,0,0.,24.0,0.,24.0,0.,24.0,0.,24.0
1989-08-26T04:21:47.000 ,0,1,0.,24.0,0.,24.0,0.,24.0,0.,24.0
1989-08-26T04:22:11.000 ,0,0,0.,24.0,0.,24.0,0.,24.0,0.,24.0
1989-08-26T04:22:35.000 ,1,1,0.,24.0,0.,24.0,0.,24.0,0.,24.0
1989-08-26T04:22:59.000 ,1,0,0.,24.0,0.,24.0,0.,24.0,0.,24.0
1989-08-26T04:23:23.000 ,2,1,0.,24.0,0.,24.0,0.,24.0,0.,24.0
1989-08-26T04:23:47.000 ,2,0,1.,24.0,0.,24.0,0.,24.0,0.,24.0
1989-08-26T04:24:11.000 ,3,1,0.,24.0,0.,24.0,0.,24.0,0.,24.0
1989-08-26T04:24:35.000 ,3,0,0.,24.0,0.,24.0,0.,24.0,0.,24.0
1989-08-26T04:24:59.000 ,4,1,0.,24.0,0.,24.0,0.,24.0,0.,24.0
1989-08-26T04:25:23.000 ,4,0,0.,24.0,0.,24.0,0.,24.0,0.,24.0
1989-08-26T04:25:47.000 ,5,1,0.,24.0,0.,24.0,0.,24.0,0.,24.0
1989-08-26T04:26:11.000 ,5,0,0.,24.0,0.,24.0,0.,24.0,0.,24.0
1989-08-26T04:26:35.000 ,6,1,0.,24.0,0.,24.0,0.,24.0,0.,24.0
1989-08-26T04:26:59.000 ,6,0,0.,24.0,0.,24.0,0.,24.0,0.,24.0
1989-08-26T04:27:23.000 ,7,1,8.,24.0,0.,24.0,0.,24.0,0.,24.0
1989-08-26T04:27:47.000 ,7,0,35.,24.0,0.,24.0,0.,24.0,0.,24.0
1989-08-26T04:28:11.000 ,7,1,33.,24.0,0.,24.0,0.,24.0,0.,24.0
1989-08-26T04:28:35.000 ,7,0,28.,24.0,0.,24.0,0.,24.0,0.,24.0
1989-08-26T04:28:59.000 ,6,1,21.,24.0,0.,24.0,0.,24.0,0.,24.0
1989-08-26T04:29:23.000 ,6,0,0.,24.0,0.,24.0,0.,24.0,0.,24.0
1989-08-26T04:29:47.000 ,5,1,0.,24.0,0.,24.0,0.,24.0,0.,24.0
1989-08-26T04:30:11.000 ,5,0,1.,24.0,0.,24.0,0.,24.0,0.,24.0
1989-08-26T04:30:35.000 ,4,1,0.,24.0,0.,24.0,0.,24.0,0.,24.0
1989-08-26T04:30:59.000 ,4,0,0.,24.0,0.,24.0,0.,24.0,0.,24.0
1989-08-26T04:31:23.000 ,3,1,0.,24.0,0.,24.0,0.,24.0,0.,24.0
1989-08-26T04:31:47.000 ,3,0,0.,24.0,0.,24.0,0.,24.0,0.,24.0
1989-08-26T04:32:11.000 ,2,1,0.,24.0,0.,24.0,0.,24.0,0.,24.0
1989-08-26T04:32:35.000 ,2,0,0.,24.0,0.,24.0,0.,24.0,0.,24.0
1989-08-26T04:32:59.000 ,1,1,0.,24.0,0.,24.0,0.,24.0,0.,24.0
1989-08-26T04:33:23.000 ,1,0,0.,24.0,0.,24.0,0.,24.0,0.,24.0
1989-08-26T04:33:47.000 ,0,1,0.,24.0,0.,24.0,0.,24.0,0.,24.0
1989-08-26T04:34:11.000 ,0,0,0.,24.0,0.,24.0,0.,24.0,0.,24.0
1989-08-26T04:34:35.000 ,0,1,0.,24.0,0.,24.0,0.,24.0,0.,24.0
1989-08-26T04:34:59.000 ,0,0,0.,24.0,0.,24.0,0.,24.0,0.,24.0
1989-08-26T04:35:23.000 ,1,1,0.,24.0,0.,24.0,0.,24.0,0.,24.0
1989-08-26T04:35:47.000 ,1,0,0.,24.0,0.,24.0,0.,24.0,0.,24.0
1989-08-26T04:36:11.000 ,2,1,0.,24.0,0.,24.0,0.,24.0,0.,24.0
1989-08-26T04:36:35.000 ,2,0,0.,24.0,0.,24.0,0.,24.0,0.,24.0
1989-08-26T04:36:59.000 ,3,1,0.,24.0,0.,24.0,0.,24.0,0.,24.0
1989-08-26T04:37:23.000 ,3,0,0.,24.0,0.,24.0,0.,24.0,0.,24.0
1989-08-26T04:37:47.000 ,4,1,0.,24.0,0.,24.0,0.,24.0,0.,24.0
1989-08-26T04:38:11.000 ,4,0,0.,24.0,0.,24.0,0.,24.0,0.,24.0
1989-08-26T04:38:35.000 ,5,1,0.,24.0,0.,24.0,0.,24.0,0.,24.0
1989-08-26T04:38:59.000 ,5,0,0.,24.0,0.,24.0,0.,24.0,0.,24.0
1989-08-26T04:39:23.000 ,6,1,0.,24.0,0.,24.0,0.,24.0,0.,24.0
1989-08-26T04:39:47.000 ,6,0,0.,24.0,0.,24.0,0.,24.0,0.,24.0
1989-08-26T04:40:11.000 ,7,1,9.,24.0,0.,24.0,0.,24.0,0.,24.0
1989-08-26T04:40:35.000 ,7,0,37.,24.0,0.,24.0,0.,24.0,0.,24.0
1989-08-26T04:40:59.000 ,7,1,32.,24.0,0.,24.0,0.,24.0,0.,24.0
1989-08-26T04:41:23.000 ,7,0,39.,24.0,0.,24.0,0.,24.0,0.,24.0
1989-08-26T04:41:47.000 ,6,1,28.,24.0,0.,24.0,0.,24.0,0.,24.0
1989-08-26T04:42:11.000 ,6,0,0.,24.0,0.,24.0,0.,24.0,0.,24.0
1989-08-26T04:42:35.000 ,5,1,0.,24.0,0.,24.0,0.,24.0,0.,24.0
1989-08-26T04:42:59.000 ,5,0,0.,24.0,0.,24.0,0.,24.0,0.,24.0
1989-08-26T04:43:23.000 ,4,1,0.,24.0,0.,24.0,0.,24.0,0.,24.0
1989-08-26T04:43:47.000 ,4,0,0.,24.0,0.,24.0,0.,24.0,0.,24.0
1989-08-26T04:44:11.000 ,3,1,0.,24.0,0.,24.0,0.,24.0,0.,24.0
1989-08-26T04:44:35.000 ,3,0,0.,24.0,0.,24.0,0.,24.0,0.,24.0
1989-08-26T04:44:59.000 ,2,1,0.,24.0,0.,24.0,0.,24.0,0.,24.0
1989-08-26T04:45:23.000 ,2,0,0.,24.0,0.,24.0,0.,24.0,0.,24.0
1989-08-26T04:45:47.000 ,1,1,0.,24.0,0.,24.0,0.,24.0,0.,24.0
1989-08-26T04:46:11.000 ,1,0,0.,24.0,0.,24.0,0.,24.0,0.,24.0
1989-08-26T04:46:35.000 ,0,1,0.,24.0,0.,24.0,0.,24.0,0.,24.0
1989-08-26T04:46:59.000 ,0,0,0.,24.0,0.,24.0,0.,24.0,0.,24.0
1989-08-26T04:47:23.000 ,0,1,0.,24.0,0.,24.0,0.,24.0,0.,24.0
1989-08-26T04:47:47.000 ,0,0,0.,24.0,0.,24.0,0.,24.0,0.,24.0
1989-08-26T04:48:11.000 ,1,1,0.,24.0,0.,24.0,0.,24.0,0.,24.0
1989-08-26T04:48:35.000 ,1,0,0.,24.0,0.,24.0,0.,24.0,0.,24.0
1989-08-26T04:48:59.000 ,2,1,0.,24.0,0.,24.0,0.,24.0,0.,24.0
1989-08-26T04:49:23.000 ,2,0,0.,24.0,0.,24.0,0.,24.0,0.,24.0
1989-08-26T04:49:47.000 ,3,1,0.,24.0,0.,24.0,0.,24.0,0.,24.0
1989-08-26T04:50:11.000 ,3,0,0.,24.0,0.,24.0,0.,24.0,0.,24.0
1989-08-26T04:50:35.000 ,4,1,0.,24.0,0.,24.0,0.,24.0,0.,24.0
1989-08-26T04:50:59.000 ,4,0,1.,24.0,0.,24.0,0.,24.0,0.,24.0
1989-08-26T04:51:23.000 ,5,1,0.,24.0,0.,24.0,0.,24.0,0.,24.0
1989-08-26T04:51:47.000 ,5,0,0.,24.0,0.,24.0,0.,24.0,0.,24.0
1989-08-26T04:52:11.000 ,6,1,0.,24.0,0.,24.0,0.,24.0,0.,24.0
1989-08-26T04:52:35.000 ,6,0,0.,24.0,0.,24.0,0.,24.0,0.,24.0
1989-08-26T04:52:59.000 ,7,1,4.,24.0,0.,24.0,0.,24.0,0.,24.0
1989-08-26T04:53:23.000 ,7,0,41.,24.0,0.,24.0,0.,24.0,0.,24.0
1989-08-26T04:53:47.000 ,7,1,27.,24.0,0.,24.0,0.,24.0,0.,24.0
1989-08-26T04:54:11.000 ,7,0,34.,24.0,0.,24.0,0.,24.0,0.,24.0
1989-08-26T04:54:35.000 ,6,1,19.,24.0,0.,24.0,0.,24.0,0.,24.0
1989-08-26T04:54:59.000 ,6,0,0.,24.0,1.,24.0,0.,24.0,0.,24.0
1989-08-26T04:55:23.000 ,5,1,0.,24.0,0.,24.0,0.,24.0,0.,24.0
1989-08-26T04:55:47.000 ,5,0,0.,24.0,0.,24.0,0.,24.0,0.,24.0
1989-08-26T04:56:11.000 ,4,1,0.,24.0,0.,24.0,0.,24.0,0.,24.0
1989-08-26T04:56:35.000 ,4,0,0.,24.0,0.,24.0,0.,24.0,0.,24.0
1989-08-26T04:56:59.000 ,3,1,0.,24.0,0.,24.0,0.,24.0,0.,24.0
1989-08-26T04:57:23.000 ,3,0,0.,24.0,0.,24.0,0.,24.0,0.,24.0
1989-08-26T04:57:47.000 ,2,1,0.,24.0,0.,24.0,0.,24.0,0.,24.0
1989-08-26T04:58:11.000 ,2,0,0.,24.0,0.,24.0,0.,24.0,0.,24.0
1989-08-26T04:58:35.000 ,1,1,0.,24.0,0.,24.0,0.,24.0,0.,24.0
1989-08-26T04:58:59.000 ,1,0,0.,24.0,0.,24.0,0.,24.0,0.,24.0
1989-08-26T04:59:23.000 ,0,1,0.,24.0,0.,24.0,0.,24.0,0.,24.0
1989-08-26T04:59:47.000 ,0,0,0.,24.0,0.,24.0,0.,24.0,0.,24.0
1989-08-26T05:00:11.000 ,0,1,0.,24.0,0.,24.0,0.,24.0,0.,24.0
1989-08-26T05:00:35.000 ,0,0,0.,24.0,0.,24.0,0.,24.0,0.,24.0
1989-08-26T05:00:59.000 ,1,1,0.,24.0,0.,24.0,0.,24.0,0.,24.0
1989-08-26T05:01:23.000 ,1,0,0.,24.0,0.,24.0,0.,24.0,0.,24.0
1989-08-26T05:01:47.000 ,2,1,0.,24.0,0.,24.0,0.,24.0,0.,24.0
1989-08-26T05:02:10.990 ,2,0,0.,24.0,0.,24.0,0.,24.0,0.,24.0
1989-08-26T05:02:35.000 ,3,1,0.,24.0,0.,24.0,0.,24.0,0.,24.0
1989-08-26T05:02:59.000 ,3,0,0.,24.0,0.,24.0,0.,24.0,0.,24.0
1989-08-26T05:03:22.990 ,4,1,0.,24.0,0.,24.0,0.,24.0,0.,24.0
1989-08-26T05:03:46.990 ,4,0,0.,24.0,0.,24.0,0.,24.0,0.,24.0
1989-08-26T05:04:10.990 ,5,1,0.,24.0,0.,24.0,0.,24.0,0.,24.0
1989-08-26T05:04:34.990 ,5,0,0.,24.0,0.,24.0,0.,24.0,0.,24.0
1989-08-26T05:04:58.990 ,6,1,0.,24.0,1.,24.0,0.,24.0,0.,24.0
1989-08-26T05:05:22.990 ,6,0,0.,24.0,0.,24.0,0.,24.0,0.,24.0
1989-08-26T05:05:46.990 ,7,1,7.,24.0,0.,24.0,0.,24.0,0.,24.0
1989-08-26T05:06:10.990 ,7,0,37.,24.0,0.,24.0,0.,24.0,0.,24.0
1989-08-26T05:06:34.990 ,7,1,28.,24.0,0.,24.0,0.,24.0,0.,24.0
1989-08-26T05:06:58.990 ,7,0,19.,24.0,0.,24.0,0.,24.0,0.,24.0
1989-08-26T05:07:22.990 ,6,1,25.,24.0,0.,24.0,0.,24.0,0.,24.0
1989-08-26T05:07:46.990 ,6,0,0.,24.0,0.,24.0,0.,24.0,0.,24.0
1989-08-26T05:08:10.990 ,5,1,0.,24.0,0.,24.0,0.,24.0,0.,24.0
1989-08-26T05:08:34.990 ,5,0,0.,24.0,0.,24.0,0.,24.0,0.,24.0
1989-08-26T05:08:58.990 ,4,1,0.,24.0,0.,24.0,0.,24.0,0.,24.0
1989-08-26T05:09:22.990 ,4,0,0.,24.0,0.,24.0,0.,24.0,0.,24.0
1989-08-26T05:09:46.990 ,3,1,0.,24.0,0.,24.0,0.,24.0,0.,24.0
1989-08-26T05:10:10.990 ,3,0,1.,24.0,0.,24.0,0.,24.0,0.,24.0
1989-08-26T05:10:34.990 ,2,1,0.,24.0,0.,24.0,0.,24.0,0.,24.0
1989-08-26T05:10:58.990 ,2,0,0.,24.0,0.,24.0,0.,24.0,0.,24.0
1989-08-26T05:11:22.990 ,1,1,0.,24.0,0.,24.0,0.,24.0,0.,24.0
1989-08-26T05:11:46.990 ,1,0,0.,24.0,0.,24.0,0.,24.0,0.,24.0
1989-08-26T05:12:10.990 ,0,1,0.,24.0,0.,24.0,0.,24.0,0.,24.0
1989-08-26T05:12:34.990 ,0,0,0.,24.0,1.,24.0,0.,24.0,0.,24.0
1989-08-26T05:12:58.990 ,0,1,0.,24.0,0.,24.0,0.,24.0,0.,24.0
1989-08-26T05:13:22.990 ,0,0,0.,24.0,0.,24.0,0.,24.0,0.,24.0
1989-08-26T05:13:46.990 ,1,1,0.,24.0,0.,24.0,0.,24.0,0.,24.0
1989-08-26T05:14:10.990 ,1,0,0.,24.0,0.,24.0,0.,24.0,0.,24.0
1989-08-26T05:14:34.990 ,2,1,1.,24.0,0.,24.0,0.,24.0,0.,24.0
1989-08-26T05:14:58.990 ,2,0,0.,24.0,0.,24.0,0.,24.0,0.,24.0
1989-08-26T05:15:22.990 ,3,1,0.,24.0,0.,24.0,0.,24.0,0.,24.0
1989-08-26T05:15:46.990 ,3,0,0.,24.0,0.,24.0,0.,24.0,0.,24.0
1989-08-26T05:16:10.990 ,4,1,0.,24.0,0.,24.0,0.,24.0,0.,24.0
1989-08-26T05:16:34.990 ,4,0,0.,24.0,0.,24.0,0.,24.0,0.,24.0
1989-08-26T05:16:58.990 ,5,1,0.,24.0,0.,24.0,0.,24.0,0.,24.0
1989-08-26T05:17:22.990 ,5,0,0.,24.0,0.,24.0,0.,24.0,0.,24.0
1989-08-26T05:17:46.990 ,6,1,0.,24.0,0.,24.0,0.,24.0,0.,24.0
1989-08-26T05:18:10.990 ,6,0,0.,24.0,0.,24.0,0.,24.0,0.,24.0
1989-08-26T05:18:34.990 ,7,1,13.,24.0,0.,24.0,0.,24.0,0.,24.0
1989-08-26T05:18:58.990 ,7,0,35.,24.0,0.,24.0,0.,24.0,0.,24.0
1989-08-26T05:19:22.990 ,7,1,28.,24.0,0.,24.0,0.,24.0,0.,24.0
1989-08-26T05:19:46.990 ,7,0,35.,24.0,0.,24.0,0.,24.0,0.,24.0
1989-08-26T05:20:10.990 ,6,1,27.,24.0,0.,24.0,0.,24.0,0.,24.0
1989-08-26T05:20:34.990 ,6,0,0.,24.0,0.,24.0,0.,24.0,0.,24.0
1989-08-26T05:20:58.990 ,5,1,0.,24.0,0.,24.0,0.,24.0,0.,24.0
1989-08-26T05:21:22.990 ,5,0,0.,24.0,0.,24.0,0.,24.0,0.,24.0
1989-08-26T05:21:46.990 ,4,1,0.,24.0,0.,24.0,0.,24.0,0.,24.0
1989-08-26T05:22:10.990 ,4,0,0.,24.0,0.,24.0,0.,24.0,0.,24.0
1989-08-26T05:22:34.990 ,3,1,0.,24.0,0.,24.0,0.,24.0,0.,24.0
1989-08-26T05:22:58.990 ,3,0,0.,24.0,0.,24.0,0.,24.0,0.,24.0
1989-08-26T05:23:22.990 ,2,1,0.,24.0,0.,24.0,0.,24.0,0.,24.0
1989-08-26T05:23:46.990 ,2,0,0.,24.0,0.,24.0,0.,24.0,0.,24.0
1989-08-26T05:24:10.990 ,1,1,0.,24.0,0.,24.0,0.,24.0,0.,24.0
1989-08-26T05:24:34.990 ,1,0,0.,24.0,0.,24.0,0.,24.0,0.,24.0
1989-08-26T05:24:58.990 ,0,1,0.,24.0,0.,24.0,0.,24.0,0.,24.0
1989-08-26T05:25:22.990 ,0,0,0.,24.0,0.,24.0,0.,24.0,0.,24.0
1989-08-26T05:25:46.990 ,0,1,0.,24.0,0.,24.0,0.,24.0,0.,24.0
1989-08-26T05:26:10.990 ,0,0,0.,24.0,0.,24.0,0.,24.0,0.,24.0
1989-08-26T05:26:34.990 ,1,1,0.,24.0,0.,24.0,0.,24.0,0.,24.0
1989-08-26T05:26:58.990 ,1,0,0.,24.0,0.,24.0,0.,24.0,0.,24.0
1989-08-26T05:27:22.990 ,2,1,0.,24.0,0.,24.0,0.,24.0,0.,24.0
1989-08-26T05:27:46.990 ,2,0,0.,24.0,1.,24.0,0.,24.0,0.,24.0
1989-08-26T05:28:10.990 ,3,1,0.,24.0,0.,24.0,0.,24.0,0.,24.0
1989-08-26T05:28:34.990 ,3,0,1.,24.0,0.,24.0,0.,24.0,0.,24.0
1989-08-26T05:28:58.990 ,4,1,0.,24.0,1.,24.0,0.,24.0,0.,24.0
1989-08-26T05:29:22.990 ,4,0,0.,24.0,0.,24.0,0.,24.0,0.,24.0
1989-08-26T05:29:46.990 ,5,1,0.,24.0,0.,24.0,0.,24.0,0.,24.0
1989-08-26T05:30:10.990 ,5,0,0.,24.0,0.,24.0,0.,24.0,0.,24.0
1989-08-26T05:30:34.990 ,6,1,0.,24.0,0.,24.0,0.,24.0,0.,24.0
1989-08-26T05:30:58.990 ,6,0,0.,24.0,0.,24.0,0.,24.0,0.,24.0
1989-08-26T05:31:22.990 ,7,1,1.,24.0,0.,24.0,0.,24.0,0.,24.0
1989-08-26T05:31:46.990 ,7,0,29.,24.0,0.,24.0,0.,24.0,0.,24.0
1989-08-26T05:32:10.990 ,7,1,33.,24.0,0.,24.0,0.,24.0,0.,24.0
1989-08-26T05:32:34.990 ,7,0,24.,24.0,0.,24.0,0.,24.0,0.,24.0
1989-08-26T05:32:58.990 ,6,1,33.,24.0,0.,24.0,0.,24.0,0.,24.0
1989-08-26T05:33:22.990 ,6,0,0.,24.0,0.,24.0,0.,24.0,0.,24.0
1989-08-26T05:33:46.990 ,5,1,0.,24.0,0.,24.0,0.,24.0,0.,24.0